Location: Unspecified
(0.0000°N, 0.0000°E)
Time: 06:47:23
(UTC+00:00)

Vanguard 1 - Pass Details

Date: 28 November 2019
Orbit: 652 x 3832 km, 34.3° (Epoch: 10 December)

Event Time Altitude Azimuth Distance (km) Brightness Sun altitude
Rises 03:11:58 0° 229° (SW) 7,189 14.3 -35.9°
Reaches altitude 10° 03:16:23 10° 226° (SW) 6,440 14.0 -34.9°
Maximum altitude 03:39:25 75° 142° (SE) 3,875 13.0 -29.7°
Drops below altitude 10° 03:59:53 10° 59° (ENE) 5,869 14.4 -25.0°
Sets 04:03:39 0° 58° (ENE) 6,563 14.7 -24.1°
